Ogallala, NE

8:36 AM MDT on April 23, 2017 (GMT -0600)
Searle

Weather History for KOGA - January, 2013

Change the Weather History Date:

Thursday, January 31, 2013

  Actual Average Record
Temperature  
Mean Temperature 24 °F -  
Max Temperature 32 °F 39 °F 69 °F (1989)
Min Temperature 16 °F 12 °F -22 °F (1979)
Degree Days  
Heating Degree Days 41    
Moisture  
Dew Point 15 °F    
Average Humidity 72    
Maximum Humidity 84    
Minimum Humidity 64    
Precipitation  
Precipitation 0.00 in - - ()
Sea Level Pressure  
Sea Level Pressure 30.10 in    
Wind  
Wind Speed 10 mph (NNW)    
Max Wind Speed 18 mph    
Max Gust Speed 26 mph    
Visibility 10 miles    
Events Snow    
Averages and records for this station are not official NWS values.
T = Trace of Precipitation, MM = Missing Value Source: NWS Daily Summary

Daily Weather History Graph

Daily Weather History Graph

Search for Another Location

Airport or City:

Trip Planner

Search our weather history database for the weather conditions in past years. The results will help you decide how hot, cold, wet, or windy it might be!

Date:

Astronomy

Jan. 31, 2013 Rise Set
Actual Time 6:58 AM MST 5:03 PM MST
Civil Twilight 6:29 AM MST 5:32 PM MST
Nautical Twilight 5:56 AM MST 6:05 PM MST
Astronomical Twilight 5:24 AM MST 6:37 PM MST
Moon 10:10 PM MST (1/31) 8:56 AM MST (1/31)
Length of Visible Light 11h 02m
Length of Day
10h 04m
Waning Gibbous, 79% of the Moon is Illuminated
Jan 31
Waning Gibbous
Feb 3
Last Quarter
Feb 10
New
Feb 17
First Quarter
Feb 25
Full

Hourly Weather History & Observations

Time (MST) Temp. Windchill Dew Point Humidity Pressure Visibility Wind Dir Wind Speed Gust Speed Precip Events Conditions
12:15 AM 32.5 °F 22.3 °F 24.3 °F 72% 29.86 in 10.0 mi WNW 15.0 mph - N/A   Overcast
12:35 AM 32.0 °F 22.5 °F 24.6 °F 74% 29.86 in 10.0 mi West 12.7 mph - N/A   Overcast
12:55 AM 32.2 °F 22.3 °F 23.9 °F 72% 29.87 in 10.0 mi NW 13.8 mph 19.6 mph N/A   Overcast
1:15 AM 32.0 °F 21.6 °F 23.9 °F 72% 29.88 in 10.0 mi NW 15.0 mph 19.6 mph N/A   Overcast
1:35 AM 32.0 °F 22.1 °F 23.9 °F 72% 29.88 in 10.0 mi WNW 13.8 mph - N/A   Overcast
1:55 AM 32.0 °F 22.5 °F 23.5 °F 71% 29.90 in 10.0 mi WNW 12.7 mph 19.6 mph N/A   Overcast
2:15 AM 32.0 °F 22.1 °F 23.2 °F 70% 29.91 in 10.0 mi WNW 13.8 mph - N/A   Overcast
2:35 AM 31.8 °F 21.0 °F 22.8 °F 69% 29.91 in 10.0 mi NW 16.1 mph - N/A   Overcast
2:55 AM 31.6 °F 21.2 °F 22.6 °F 69% 29.90 in 10.0 mi NW 15.0 mph 21.9 mph N/A   Overcast
3:15 AM 31.1 °F 19.7 °F 22.1 °F 69% 29.90 in 10.0 mi NNW 17.3 mph - N/A   Overcast
3:35 AM 30.9 °F 19.1 °F 20.8 °F 66% 29.91 in 10.0 mi NNW 18.4 mph 26.5 mph N/A   Overcast
3:55 AM 30.2 °F 19.3 °F 20.3 °F 67% 29.91 in 10.0 mi NNW 15.0 mph - N/A   Mostly Cloudy
4:15 AM 29.7 °F 18.2 °F 20.7 °F 69% 29.92 in 10.0 mi NNW 16.1 mph - N/A   Mostly Cloudy
4:35 AM 29.1 °F 20.0 °F 21.0 °F 72% 29.92 in 10.0 mi NNW 10.4 mph - N/A   Mostly Cloudy
5:15 AM 27.1 °F 20.7 °F 21.0 °F 78% 29.95 in 10.0 mi NNW 5.8 mph - N/A   Mostly Cloudy
5:55 AM 26.6 °F 16.2 °F 22.5 °F 84% 29.98 in 4.0 mi NNW 11.5 mph - N/A Snow Light Snow
6:15 AM 25.7 °F 19.0 °F 21.6 °F 84% 29.99 in 10.0 mi North 5.8 mph - N/A   Overcast
6:35 AM 24.3 °F 13.3 °F 19.4 °F 82% 30.01 in 10.0 mi NNE 11.5 mph - N/A   Overcast
6:55 AM 22.5 °F 9.4 °F 17.6 °F 82% 30.03 in 3.0 mi NNE 15.0 mph - N/A Snow Light Snow
7:15 AM 21.2 °F 8.9 °F 16.2 °F 81% 30.04 in 7.0 mi NNE 12.7 mph - N/A Snow Light Snow
7:35 AM 18.9 °F 3.3 °F 12.4 °F 76% 30.07 in 10.0 mi NNE 18.4 mph - N/A   Overcast
7:55 AM 18.0 °F 3.1 °F 11.7 °F 76% 30.09 in 10.0 mi North 16.1 mph - N/A   Overcast
8:15 AM 17.6 °F 4.3 °F 10.9 °F 75% 30.12 in 10.0 mi NNE 12.7 mph - N/A   Overcast
8:35 AM 17.4 °F 4.7 °F 10.4 °F 74% 30.14 in 10.0 mi North 11.5 mph - N/A   Overcast
8:55 AM 17.2 °F 3.9 °F 9.9 °F 73% 30.16 in 10.0 mi NNE 12.7 mph - N/A   Overcast
9:15 AM 16.5 °F 3.0 °F 8.6 °F 71% 30.17 in 10.0 mi NNE 12.7 mph - N/A   Overcast
9:35 AM 16.5 °F 1.3 °F 8.4 °F 70% 30.18 in 10.0 mi North 16.1 mph 19.6 mph N/A   Overcast
9:55 AM 16.3 °F 2.7 °F 7.5 °F 68% 30.19 in 10.0 mi North 12.7 mph - N/A   Overcast
10:15 AM 16.7 °F 4.5 °F 8.8 °F 71% 30.20 in 7.0 mi NNE 10.4 mph 16.1 mph N/A   Overcast
10:35 AM 16.5 °F 4.3 °F 9.5 °F 74% 30.21 in 7.0 mi NNE 10.4 mph - N/A Snow Light Snow
10:55 AM 16.2 °F 3.9 °F 8.4 °F 72% 30.21 in 10.0 mi NNE 10.4 mph - N/A   Overcast
11:15 AM 16.9 °F 5.5 °F 8.6 °F 70% 30.22 in 7.0 mi North 9.2 mph - N/A   Overcast
11:35 AM 17.6 °F 6.4 °F 8.6 °F 68% 30.21 in 10.0 mi North 9.2 mph - N/A   Mostly Cloudy
11:55 AM 17.6 °F 7.3 °F 8.6 °F 68% 30.22 in 10.0 mi North 8.1 mph - N/A   Overcast
12:15 PM 17.2 °F 7.8 °F 8.4 °F 68% 30.21 in 10.0 mi North 6.9 mph - N/A   Overcast
12:35 PM 18.1 °F 10.0 °F 9.0 °F 67% 30.21 in 10.0 mi North 5.8 mph - N/A   Overcast
12:55 PM 17.8 °F 7.5 °F 9.3 °F 69% 30.20 in 10.0 mi North 8.1 mph - N/A   Overcast
1:15 PM 18.5 °F 8.4 °F 10.2 °F 70% 30.20 in 10.0 mi NNW 8.1 mph - N/A   Mostly Cloudy
1:35 PM 19.4 °F - 10.4 °F 68% 30.19 in 10.0 mi Calm Calm - N/A   Scattered Clouds
1:55 PM 20.1 °F 15.2 °F 10.9 °F 68% 30.18 in 10.0 mi NNW 3.5 mph - N/A   Clear
2:15 PM 20.5 °F 12.8 °F 10.9 °F 67% 30.19 in 10.0 mi NW 5.8 mph - N/A   Scattered Clouds
2:35 PM 20.7 °F 14.2 °F 11.1 °F 67% 30.18 in 10.0 mi NW 4.6 mph - N/A   Scattered Clouds
2:55 PM 21.9 °F 13.4 °F 11.8 °F 65% 30.18 in 10.0 mi NNW 6.9 mph - N/A   Mostly Cloudy
3:15 PM 22.5 °F 15.1 °F 12.0 °F 64% 30.18 in 10.0 mi NNW 5.8 mph - N/A   Scattered Clouds
3:35 PM 22.1 °F 15.9 °F 12.2 °F 66% 30.18 in 10.0 mi NNW 4.6 mph - N/A   Clear
3:55 PM 21.9 °F 14.5 °F 12.4 °F 67% 30.17 in 10.0 mi NE 5.8 mph - N/A   Clear
4:15 PM 20.8 °F - 11.8 °F 68% 30.17 in 10.0 mi Calm Calm - N/A   Scattered Clouds
4:35 PM 20.3 °F - 11.7 °F 69% 30.17 in 10.0 mi Calm Calm - N/A   Overcast
4:55 PM 20.3 °F - 12.0 °F 70% 30.16 in 10.0 mi Calm Calm - N/A   Overcast
5:15 PM 20.3 °F - 12.6 °F 72% 30.15 in 10.0 mi Calm Calm - N/A   Overcast
5:35 PM 19.9 °F - 12.2 °F 72% 30.16 in 10.0 mi Calm Calm - N/A   Overcast
5:55 PM 19.9 °F - 12.2 °F 72% 30.17 in 10.0 mi Calm Calm - N/A   Overcast
6:15 PM 20.3 °F - 12.2 °F 71% 30.17 in 10.0 mi Calm Calm - N/A   Overcast
6:35 PM 20.3 °F 15.4 °F 12.6 °F 72% 30.18 in 10.0 mi SE 3.5 mph - N/A   Mostly Cloudy
6:55 PM 20.3 °F - 13.1 °F 74% 30.17 in 10.0 mi Calm Calm - N/A   Mostly Cloudy
7:15 PM 20.8 °F - 13.3 °F 73% 30.18 in 10.0 mi Calm Calm - N/A   Overcast
7:35 PM 21.6 °F - 14.4 °F 74% 30.18 in 10.0 mi Calm Calm - N/A   Overcast
7:55 PM 22.1 °F - 15.6 °F 76% 30.18 in 10.0 mi Calm Calm - N/A   Overcast
8:15 PM 22.8 °F - 16.2 °F 76% 30.19 in 10.0 mi Calm Calm - N/A   Overcast
8:35 PM 22.8 °F 18.2 °F 16.5 °F 77% 30.19 in 10.0 mi NNE 3.5 mph - N/A   Overcast
8:55 PM 23.0 °F 18.4 °F 16.5 °F 76% 30.19 in 10.0 mi ENE 3.5 mph - N/A   Overcast
9:15 PM 23.4 °F - 16.7 °F 76% 30.18 in 10.0 mi Calm Calm - N/A   Overcast
9:35 PM 23.5 °F - 16.7 °F 75% 30.18 in 10.0 mi Calm Calm - N/A   Overcast
9:55 PM 23.0 °F - 16.7 °F 77% 30.17 in 10.0 mi Calm Calm - N/A   Overcast
10:15 PM 23.4 °F - 16.7 °F 76% 30.17 in 10.0 mi Calm Calm - N/A   Overcast
10:35 PM 23.0 °F - 16.7 °F 77% 30.17 in 10.0 mi Calm Calm - N/A   Overcast
10:55 PM 23.5 °F - 17.6 °F 78% 30.16 in 10.0 mi Calm Calm - N/A   Overcast
11:15 PM 23.9 °F - 18.3 °F 79% 30.17 in 10.0 mi Calm Calm - N/A   Overcast
11:35 PM 24.8 °F - 19.4 °F 80% 30.16 in 10.0 mi Calm Calm - N/A   Overcast
11:55 PM 28.4 °F 22.2 °F 21.2 °F 74% 30.15 in 10.0 mi WSW 5.8 mph - N/A   Overcast